Flag for Germany Weather past 2 weeks in Memmingen, Bavaria, Germany

Now
56 °F

Overcast.


Feels Like: 56 °F
Forecast: 52 / 65 °F
Wind: 1 mph from Southwest

Location: Kempten

Current Time: Oct 1, 2014 at 6:10:09 AM

Latest Report: Oct 1, 2014 at 6:00 AM


Visibility: 3 mi

Pressure: 30.28 "Hg

Humidity: 98%

Dew point: 56 °F

Location of MemmingenLocation

Historic Weather in Memmingen — Graph

°F

Memmingen temperature yesterday

Maximum temperature yesterday: 65 °F (at 1:00 PM)
Minimum temperature yesterday: 52 °F (at 3:00 AM)
Average temperature yesterday: 58 °F

Past Weeks' High & Low Weather Summary

 TemperatureHumidityPressure
High75 °F (Sep 19, 3:00 PM)100% (Sep 28, 7:00 AM)30.40 "Hg (Sep 28, 7:00 AM)
Low34 °F (Sep 23, 7:00 AM)38% (Sep 18, 2:00 PM)29.79 "Hg (Sep 17, 4:00 PM)
Average56 °F82%30.11 "Hg
* Reported Sep 16 6:00 AM — Oct 1 5:00 AM, Memmingen, Weather by CustomWeather, © 2014

Note: Actual official high and low records may vary slightly from our data, if they occured in-between our weather recording intervals... More about our weather records

Advertising

Memmingen weather history for previous 24 hours

 ConditionsComfort  
Time TempWeatherWind HumidityBarometerVisibility
5:00 AM
Oct 1
56 °FLight rain. Overcast.No wind98%30.29 "Hg2 mi
4:00 AM56 °FLight rain. Overcast.1 mph98%30.29 "Hg2 mi
3:00 AM56 °FLight rain. Overcast.1 mph98%30.29 "Hg2 mi
2:00 AM57 °FLight rain. Low clouds.1 mph98%30.30 "Hg2 mi
1:00 AM57 °FLight rain. Passing clouds.No wind98%30.30 "Hg1 mi
12:00 AM56 °FDrizzle. Low clouds.No wind98%30.31 "Hg1 mi
11:00 PM
Sep 30
57 °FLight rain. Low clouds.No wind98%30.32 "Hg1 mi
10:00 PM57 °FDrizzle. Overcast.1 mph98%30.32 "Hg2 mi
9:00 PM57 °FOvercast.No wind98%30.32 "Hg1 mi
8:00 PM58 °FLight freezing rain. Overcast.1 mph97%30.30 "Hg1 mi
7:00 PM58 °FLight rain. Overcast.No wind96%30.29 "Hg2 mi
6:00 PM60 °FLight rain. Partly sunny.1 mph92%30.28 "Hg3 mi
5:00 PM61 °FLight rain. Overcast.1 mph84%30.28 "Hg6 mi
4:00 PM63 °FLight rain. Overcast.1 mph82%30.27 "Hg6 mi
3:00 PM63 °FRain. Overcast.1 mph81%30.28 "Hg5 mi
2:00 PM64 °FOvercast.1 mph72%30.27 "Hg14 mi
1:00 PM65 °FOvercast.1 mph71%30.27 "Hg17 mi
12:00 PM63 °FOvercast.2 mph71%30.27 "Hg19 mi
10:00 AM57 °FOvercast.1 mph86%30.31 "Hg18 mi
9:00 AM56 °FOvercast.1 mph87%30.30 "Hg19 mi
8:00 AM54 °FOvercast.1 mph91%30.31 "Hg18 mi
7:00 AM54 °FOvercast.1 mph91%30.31 "Hg19 mi
6:00 AM54 °FOvercast.No wind89%30.31 "Hg19 mi
Weather by CustomWeather, © 2014

See weather overviewHow to use our weather pages